This is the latest recevied weather packets stored in our database for station/object KJ4AJP. If no packets are shown the sender has not sent any weather packets the latest 10 day(s).
| Time | Temp. | Humidity | Pressure | Rain* | Wind** | Luminosity | Snow |
|---|---|---|---|---|---|---|---|
| 1778114119 | 12.22° C | 96% | 1015.8 hPa | 0 mm | - | 2 W/m² | - |
| 1778113814 | 12.22° C | 96% | 1015.8 hPa | 0 mm | - | 4 W/m² | - |
| 1778113511 | 12.22° C | 96% | 1015.7 hPa | 0 mm | - | 8 W/m² | - |
| 1778113207 | 12.22° C | 96% | 1015.6 hPa | 0 mm | - | 11 W/m² | - |
| 1778112903 | 12.22° C | 96% | 1015.8 hPa | 0 mm | - | 10 W/m² | - |
| 1778112601 | 12.22° C | 96% | 1015.2 hPa | 0 mm | - | 10 W/m² | - |
| 1778112297 | 12.22° C | 95% | 1015.2 hPa | 0 mm | - | 10 W/m² | - |
| 1778111992 | 12.22° C | 95% | 1015 hPa | 0 mm | - | 12 W/m² | - |
| 1778111690 | 12.22° C | 96% | 1014.9 hPa | 0 mm | - | 15 W/m² | - |
| 1778111386 | 12.78° C | 96% | 1014.8 hPa | 0 mm | - | 14 W/m² | - |
| 1778111083 | 12.78° C | 96% | 1014.4 hPa | 0 mm | - | 18 W/m² | - |
| 1778110781 | 12.78° C | 96% | 1014 hPa | 0 mm | - | 26 W/m² | - |
| 1778110477 | 12.78° C | 96% | 1014.2 hPa | 0 mm | - | 24 W/m² | - |
| 1778110174 | 12.78° C | 96% | 1013.8 hPa | 0 mm | - | 24 W/m² | - |
| 1778109870 | 12.78° C | 96% | 1014.1 hPa | 0 mm | - | 28 W/m² | - |
| 1778109566 | 12.78° C | 96% | 1014.1 hPa | 0 mm | - | 37 W/m² | - |
| 1778109263 | 12.78° C | 96% | 1013.8 hPa | 0 mm | - | 60 W/m² | - |
| 1778108961 | 12.78° C | 96% | 1013.6 hPa | 0 mm | - | 65 W/m² | - |
| 1778108657 | 12.22° C | 96% | 1013.3 hPa | 0 mm | - | 73 W/m² | - |
| 1778108353 | 12.22° C | 95% | 1013.3 hPa | 0 mm | - | 33 W/m² | - |
| 1778108051 | 12.22° C | 95% | 1013.2 hPa | 0 mm | - | 34 W/m² | - |
| 1778107748 | 12.22° C | 95% | 1013.2 hPa | 0 mm | - | 27 W/m² | - |
| 1778107445 | 12.78° C | 95% | 1013.6 hPa | 0 mm | - | 33 W/m² | - |
| 1778107141 | 12.78° C | 96% | 1013.8 hPa | 0 mm | - | 40 W/m² | - |
| 1778106836 | 12.78° C | 96% | 1013.7 hPa | 0 mm | - | 49 W/m² | - |
* Rain latest hour (hover to see other rain measurements)
** Current wind speed in m/s (hover to see current wind gust speed)